Погода в Аммане

Иордания     31°57′19″N   35°53′44″E
темп.,
°C
ветер,
м/с
пор.,
м/с
влажн.,
%
обл.,
%
осадки,
мм/ч
давл.,
гПа
погр.,
м
10 августа, ср
ср1000:00+22зсз34510 0.0 100980
03:00+20зсз22670 0.0 100841
06:00+19зсз33820 0.0 100958
09:00+23зсз57590 0.0 1009584
12:00+28зсз67360 0.0 1008894
15:00+31зсз77300 0.0 10061145
18:00+28зсз89380 0.0 1006961
21:00+23зсз58610 0.0 1008303
11 августа, чт
чт1100:00+21зсз47760 0.0 1007220
03:00+19з34877 0.0 1007100
06:00+19зсз339318 0.0 100859
09:00+24зсз46580 0.0 1009556
12:00+29зсз55330 0.0 10081015
15:00+32зсз66270 0.0 10061246
18:00+29зсз77330 0.0 1006950
21:00+24зсз34510 0.0 100877
12 августа, пт
пт1200:00+22з33540 0.0 100838
03:00+21з22490 0.0 100816
06:00+21зсз22470 0.0 100813
09:00+26зсз24270 0.0 1008447
12:00+31зсз55190 0.0 1008961
15:00+33зсз66210 0.0 10061038
18:00+30зсз66280 0.0 1007757
21:00+25зсз34390 0.0 100879
13 августа, сб
сб1300:00+23з34410 0.0 100856
03:00+22з33390 0.0 100836
06:00+21з44430 0.0 100938
09:00+25зсз56290 0.0 1009454
12:00+30зсз77220 0.0 1008776
15:00+32зсз77210 0.0 1007987
18:00+29зсз89270 0.0 1006821
21:00+23зсз46540 0.0 1008122
14 августа, вс
вс1400:00+20зсз34720 0.0 100870
03:00+19зсз34867 0.0 100880
06:00+18з359538 0.0 1008105
09:00+23зсз46600 0.0 1008453
12:00+29зсз66330 0.0 1007823
15:00+32зсз66290 0.0 10061060
18:00+29зсз78360 0.0 1006868
21:00+24зсз34580 0.0 100767